Budapest Ferihegy, Hungary

12:49 PM CEST on August 20, 2017 (GMT +0200)
Ferihegy

Weather History for LHBP - February, 2014

Change the Weather History Date:

Wednesday, February 5, 2014

  Actual Average Record
Temperature  
Mean Temperature 30 °F -  
Max Temperature 37 °F 42 °F 64 °F (2004)
Min Temperature 23 °F 25 °F -7 °F (2012)
Degree Days  
Heating Degree Days 35    
Moisture  
Dew Point 23 °F    
Average Humidity 76    
Maximum Humidity 93    
Minimum Humidity 60    
Precipitation  
Precipitation 0.00 in - - ()
Sea Level Pressure  
Sea Level Pressure 30.06 in    
Wind  
Wind Speed 8 mph ()    
Max Wind Speed 16 mph    
Max Gust Speed -    
Visibility 5.3 miles    
Events Rain    
Averages and records for this station are not official NWS values.
T = Trace of Precipitation, MM = Missing Value Source: Averaged Metar Reports

Daily Weather History Graph

Daily Weather History Graph

Search for Another Location

Airport or City:

Trip Planner

Search our weather history database for the weather conditions in past years. The results will help you decide how hot, cold, wet, or windy it might be!

Date:

Astronomy

Feb. 05, 2014 Rise Set
Actual Time 7:03 AM CET 4:50 PM CET
Civil Twilight 6:31 AM CET 5:23 PM CET
Nautical Twilight 5:54 AM CET 5:59 PM CET
Astronomical Twilight 5:19 AM CET 6:35 PM CET
Moon 9:39 AM CET (2/5) 11:58 PM CET (2/5)
Length of Visible Light 10h 51m
Length of Day
9h 46m
Waxing Crescent, 36% of the Moon is Illuminated
Feb 5
Waxing Crescent
Feb 6
First Quarter
Feb 15
Full
Feb 22
Last Quarter
Mar 1
New

Hourly Weather History & Observations

Time (CET) Temp. Windchill Dew Point Humidity Pressure Visibility Wind Dir Wind Speed Gust Speed Precip Events Conditions
12:00 AM 24.8 °F 19.1 °F 21.2 °F 86% 30.18 in - ESE 4.6 mph - N/A   Clear
12:30 AM 23.0 °F 15.8 °F 19.4 °F 86% 30.18 in - ESE 5.8 mph - N/A   Clear
1:00 AM 24.8 °F 16.9 °F 21.2 °F 86% 30.18 in - ESE 6.9 mph - N/A   Clear
1:30 AM 23.0 °F 15.8 °F 19.4 °F 86% 30.18 in - ESE 5.8 mph - N/A   Clear
2:00 AM 23.0 °F 14.7 °F 21.2 °F 93% 30.18 in - East 6.9 mph - N/A   Clear
2:30 AM 23.0 °F 15.8 °F 19.4 °F 86% 30.18 in - East 5.8 mph - N/A   Clear
3:00 AM 23.0 °F 17.0 °F 19.4 °F 86% 30.15 in - East 4.6 mph - N/A   Clear
3:30 AM 23.0 °F 15.8 °F 21.2 °F 93% 30.15 in - East 5.8 mph - N/A   Clear
4:00 AM 23.0 °F 13.1 °F 19.4 °F 86% 30.15 in - East 9.2 mph - N/A   Clear
4:30 AM 23.0 °F 13.1 °F 19.4 °F 86% 30.15 in - East 9.2 mph - N/A   Clear
5:00 AM 23.0 °F 14.7 °F 19.4 °F 86% 30.15 in - East 6.9 mph - N/A   Clear
5:30 AM 23.0 °F 13.9 °F 19.4 °F 86% 30.12 in - ESE 8.1 mph - N/A   Clear
6:00 AM 24.8 °F 14.0 °F 19.4 °F 80% 30.12 in - SE 11.5 mph - N/A   Clear
6:30 AM 23.0 °F 14.7 °F 17.6 °F 80% 30.12 in - East 6.9 mph - N/A   Clear
7:00 AM 23.0 °F 17.0 °F 17.6 °F 80% 30.12 in 3.7 mi ESE 4.6 mph - N/A   Unknown
7:30 AM 23.0 °F 18.4 °F 19.4 °F 86% 30.15 in 5.0 mi Variable 3.5 mph - N/A   Unknown
8:00 AM 24.8 °F 16.1 °F 21.2 °F 86% 30.12 in 5.0 mi East 8.1 mph - N/A   Unknown
8:30 AM 26.6 °F 19.1 °F 21.2 °F 80% 30.12 in 5.0 mi East 6.9 mph - N/A   Unknown
9:00 AM 28.4 °F 19.7 °F 23.0 °F 80% 30.12 in - ESE 9.2 mph - N/A   Clear
9:30 AM 30.2 °F 23.4 °F 23.0 °F 75% 30.12 in 5.0 mi East 6.9 mph - N/A   Unknown
10:00 AM 30.2 °F 22.6 °F 23.0 °F 75% 30.09 in 5.0 mi ESE 8.1 mph - N/A   Unknown
10:30 AM 32.0 °F 22.5 °F 23.0 °F 69% 30.09 in - SE 12.7 mph - N/A   Clear
11:00 AM 33.8 °F 24.3 °F 23.0 °F 65% 30.09 in - ESE 13.8 mph - N/A   Clear
11:30 AM 33.8 °F 25.8 °F 23.0 °F 65% 30.09 in - East 10.4 mph - N/A   Clear
12:00 PM 35.6 °F 27.1 °F 23.0 °F 60% 30.06 in - East 12.7 mph - N/A   Clear
12:30 PM 33.8 °F 24.3 °F 23.0 °F 65% 30.04 in - ESE 13.8 mph - N/A   Clear
1:00 PM 35.6 °F 25.9 °F 24.8 °F 65% 30.04 in - ESE 16.1 mph - N/A   Clear
1:30 PM 35.6 °F 26.6 °F 23.0 °F 60% 30.01 in - ESE 13.8 mph - N/A   Clear
2:00 PM 37.4 °F 28.5 °F 24.8 °F 60% 30.01 in - East 15.0 mph - N/A   Clear
2:30 PM 37.4 °F 28.5 °F 24.8 °F 60% 30.01 in - ESE 15.0 mph - N/A   Clear
3:00 PM 35.6 °F 26.6 °F 24.8 °F 65% 30.01 in - ESE 13.8 mph - N/A   Clear
3:30 PM 33.8 °F 24.3 °F 24.8 °F 70% 29.98 in - ESE 13.8 mph - N/A   Clear
4:00 PM 33.8 °F 24.8 °F 24.8 °F 70% 29.98 in 5.0 mi ESE 12.7 mph - N/A   Unknown
4:30 PM 32.0 °F 23.0 °F 24.8 °F 75% 29.98 in 5.0 mi ESE 11.5 mph - N/A   Unknown
5:00 PM 32.0 °F 23.0 °F 23.0 °F 69% 29.98 in 5.0 mi ESE 11.5 mph - N/A   Unknown
5:30 PM 32.0 °F 24.8 °F 24.8 °F 75% 29.98 in - ESE 8.1 mph - N/A   Clear
6:00 PM 32.0 °F 23.6 °F 24.8 °F 75% 29.98 in - East 10.4 mph - N/A   Clear
6:30 PM 32.0 °F 24.8 °F 24.8 °F 75% 29.98 in - East 8.1 mph - N/A   Clear
7:00 PM 32.0 °F 24.2 °F 24.8 °F 75% 29.98 in - East 9.2 mph - N/A   Clear
7:30 PM 32.0 °F 23.6 °F 24.8 °F 75% 29.98 in 6.2 mi East 10.4 mph - N/A   Mostly Cloudy
8:00 PM 32.0 °F 25.6 °F 24.8 °F 75% 29.95 in 6.2 mi East 6.9 mph - N/A   Mostly Cloudy
8:30 PM 32.0 °F 24.8 °F 24.8 °F 75% 29.95 in 6.2 mi East 8.1 mph - N/A   Overcast
9:00 PM 33.8 °F 25.8 °F 24.8 °F 70% 29.95 in 6.2 mi East 10.4 mph - N/A   Overcast
9:30 PM 33.8 °F 25.8 °F 26.6 °F 75% 29.95 in 6.2 mi East 10.4 mph - N/A   Overcast
10:00 PM 33.8 °F 27.7 °F 26.6 °F 75% 29.95 in 6.2 mi ESE 6.9 mph - N/A Rain Light Freezing Rain
10:30 PM 32.0 °F 26.4 °F 26.6 °F 80% 29.95 in 5.0 mi East 5.8 mph - N/A Rain Rain
11:00 PM 32.0 °F 25.6 °F 26.6 °F 80% 29.95 in 5.0 mi East 6.9 mph - N/A Rain Rain
11:30 PM 32.0 °F 24.8 °F 26.6 °F 80% 29.95 in 5.0 mi East 8.1 mph - N/A Rain Rain